Regional Weather Roundup
Issued by NWS Goodland, KS

Home | Current Version | Previous Version | Graphics & Text | Print | Product List | Glossary On
Versions: 1 2 3 4 5 6 7 8 9 10 11 12 13 14 15 16 17 18 19 20 21 22 23 24 25 26 27 28 29 30 31 32 33 34 35 36 37 38 39 40 41 42 43 44 45 46 47 48 49 50
473
ASUS43 KGLD 170059
RWRGLD

GOODLAND FORECAST AREA HOURLY WEATHER ROUNDUP
NATIONAL WEATHER SERVICE GOODLAND KS
600 PM MST SAT DEC 16 2017

...OFFICIAL OBSERVATIONS...

CITY           SKY/WX    TMP DP  RH WIND       PRES   REMARKS
GOODLAND KS    CLEAR     36  22  56 NE13      29.82R
HILL CITY KS   CLEAR     40  20  44 NE12      29.82R
IMPERIAL NEB   CLOUDY    33  28  81 NE10      29.89R
MCCOOK NEB     CLEAR     38  28  67 NE15      29.87R
AKRON CO       CLOUDY    29  22  75 NE12      29.87R WCI  19
BURLINGTON CO  CLOUDY    36  22  56 NE13      29.81R
LIMON CO       CLOUDY    23  13  65 N7        29.84R
$$

...UNOFFICIAL OBSERVATIONS...

CITY           SKY/WX    TMP DP  RH WIND       PRES   REMARKS
LENORA KS        N/A     38  32  79 CALM        N/A
NORTON KS      CLEAR     39  19  45 NE10      29.84
SHARON SPRINGS   N/A     34  15  44 NE7         N/A
TRENTON NEB      N/A     34  32  92 NE7         N/A
KIT CARSON CO    N/A     35  16  46 MISG        N/A
YUMA CO        FAIR      32  27  80 N12       29.87R
$$




USA.gov is the U.S. government's official web portal to all federal, state and local government web resources and services.